Back to catalog

STARLINK-3625

AliveCommunicationsVLEO
NORAD 51777·PAYLOAD·🇺🇸 United States

Launched Feb 25, 2022 from Vandenberg Space Force Base

Loading…

Next Passes (next 24 hours)

TLE

FreshSource: CelesTrak SupGP

Epoch: Sep 14, 2026, 13:13 UTC

1 51777C 22017K   26257.55118056 -.00021949  00000+0 -62804-3 0  2578
2 51777  53.1586 199.7837 0001354  94.6120 284.7438 15.35405913    19

Track STARLINK-3625 in real time with AllMySat

Download on the App Store